This is the latest recevied weather packets stored in our database for station/object SP2CDN-10. If no packets are shown the sender has not sent any weather packets the latest 10 day(s).
| Time | Temp. | Humidity | Pressure | Rain* | Wind** | Luminosity | Snow |
|---|---|---|---|---|---|---|---|
| 1787980506 | 15.56° C | 100% | 1009.1 hPa | - | - | - | - |
| 1787978224 | 15.56° C | 100% | 1009.5 hPa | - | - | - | - |
| 1787975943 | 17.78° C | 73% | 1008.2 hPa | - | - | - | - |
| 1787973661 | 17.78° C | 64% | 1007.9 hPa | - | - | - | - |
| 1787971379 | 18.33° C | 60% | 1008.6 hPa | - | - | - | - |
| 1787969097 | 18.33° C | 59% | 1008.5 hPa | - | - | - | - |
| 1787966816 | 18.89° C | 57% | 1008.7 hPa | - | - | - | - |
| 1787964534 | 18.89° C | 54% | 1009 hPa | - | - | - | - |
| 1787962253 | 18.89° C | 52% | 1009 hPa | - | - | - | - |
| 1787959971 | 19.44° C | 51% | 1009.4 hPa | - | - | - | - |
| 1787957689 | 19.44° C | 49% | 1009.8 hPa | - | - | - | - |
| 1787955408 | 20° C | 49% | 1010.5 hPa | - | - | - | - |
| 1787953126 | 20° C | 50% | 1010.7 hPa | - | - | - | - |
| 1787950845 | 20° C | 50% | 1011.2 hPa | - | - | - | - |
| 1787948563 | 20.56° C | 48% | 1011.3 hPa | - | - | - | - |
| 1787946281 | 21.11° C | 46% | 1011.2 hPa | - | - | - | - |
| 1787943999 | 21.11° C | 47% | 1011.5 hPa | - | - | - | - |
| 1787941717 | 21.11° C | 47% | 1011.9 hPa | - | - | - | - |
| 1787939438 | 21.67° C | 46% | 1012.3 hPa | - | - | - | - |
| 1787937154 | 22.78° C | 42% | 1013.1 hPa | - | - | - | - |
| 1787934873 | 23.33° C | 39% | 1012.9 hPa | - | - | - | - |
| 1787932591 | 23.89° C | 39% | 1013.2 hPa | - | - | - | - |
| 1787930309 | 24.44° C | 38% | 1013.3 hPa | - | - | - | - |
| 1787928028 | 24.44° C | 38% | 1013.4 hPa | - | - | - | - |
| 1787925968 | 25° C | 39% | 1014.3 hPa | - | - | - | - |
* Rain since midnight (hover to see other rain measurements)
** Current wind speed in m/s (hover to see current wind gust speed)